Location: T�bingen+AIT
(48.5342°N, 9.0700°E)
Time: 19:32:07
(UTC+01:00)

YAOGAN 6 - Pass Details

Date: 14 September 2017
Orbit: 467 x 508 km, 97.1° (Epoch: 22 November)

Event Time Altitude Azimuth Distance (km) Brightness Sun altitude
Exits shadow 21:12:27 34° 129° (SE) 804 3.1 -15.9°
Maximum altitude 21:13:39 51° 73° (ENE) 604 2.7 -16.0°
Drops below altitude 10° 21:17:07 10° 357° (N) 1,664 5.6 -16.6°
Sets 21:19:14 0° 352° (N) 2,556 6.7 -16.9°
